If you wish to contribute or participate in the discussions about articles you are invited to join SKYbrary as a registered user

 Actions

Liège

From SKYbrary Wiki

EBLG
Airport
ICAO: EBLG
Summary
Name Liège
Region Europe
Territory Belgium BE.gif
Location Liège
Serving
Coordinates 50° 38' 38.94" N, 5° 27' 17.02" E
Runways
Designator Length Width Surface ROPS
05L/23R 2340 m7,677.165 ft
45 m147.638 ft
ASP yes/yes
05R/23L 3287 m10,784.121 ft
45 m147.638 ft
ASP yes/yes


METAR
Observation EBLG 261520Z 27013KT 9999 SCT017 SCT033 12/09 Q1000 NOSIG
Station Bierset
Date/Time 26 September 2020 15:20:00
Wind direction 270°
Wind speed 13 kts
Lowest cloud amount scattered clouds
Temperature 12°C
Dew point 9°C
Humidity 81%
QNH 1000 hPa
Weather condition n/a


Liège Airport

ICAO: EBLG IATA: LGG

Description

Liège Airport, also called Liège-Bierset, is a cargo airport in Belgium.

Climatology

Temperate Marine climate/Oceanic climate (Köppen climate classification Cfb) - Moderately cool summer and comparatively warm winter.

Maps

Terrain

Loading map...

Airport Layout

Loading map...




Accidents & Serious Incidents at or in vicinity of EBLG

None on SKYbrary